SV7RNH Weather Reports


time (UTC)temp
C
wind
direction
speed
KPH
gust
KPH
rain 1hr
cm
rain 24hr
cm
rain mn
cm
humidity
%
barometer
mb
20260906073004 32 2 3.2 17.7 0.00 0.00 0.00 16 1018.2
20260906072503 32 347 3.2 17.7 0.00 0.00 0.00 16 1018.1
20260906072004 31 287 1.6 12.9 0.00 0.00 0.00 17 1018.0
20260906071503 31 323 4.8 12.9 0.00 0.00 0.00 17 1018.0
20260906071004 31 54 3.2 14.5 0.00 0.00 0.00 18 1018.0
20260906070503 31 67 3.2 14.5 0.00 0.00 0.00 18 1017.9
20260906070004 31 46 3.2 12.9 0.00 0.00 0.00 18 1017.7
20260906065503 31 36 3.2 11.3 0.00 0.00 0.00 18 1017.7
20260906065003 31 73 1.6 16.1 0.00 0.00 0.00 18 1017.7
20260906064503 30 212 1.6 16.1 0.00 0.00 0.00 18 1017.6
20260906064004 31 233 4.8 16.1 0.00 0.00 0.00 18 1017.5
20260906063503 31 274 3.2 9.7 0.00 0.00 0.00 18 1017.6
20260906063003 31 29 3.2 9.7 0.00 0.00 0.00 18 1017.5
20260906062503 31 0 0.0 6.4 0.00 0.00 0.00 19 1017.4
20260906062004 31 0 0.0 4.8 0.00 0.00 0.00 20 1017.4
20260906061503 30 0 0.0 4.8 0.00 0.00 0.00 21 1017.3
20260906061003 30 355 3.2 4.8 0.00 0.00 0.00 22 1017.3
20260906060503 30 0 0.0 4.8 0.00 0.00 0.00 24 1017.4
20260906060004 30 0 0.0 4.8 0.00 0.00 0.00 24 1017.3
20260906055503 30 0 0.0 6.4 0.00 0.00 0.00 22 1017.3
20260906055003 29 0 0.0 12.9 0.00 0.00 0.00 22 1017.2
20260906054504 29 323 3.2 12.9 0.00 0.00 0.00 22 1017.3
20260906054003 28 323 1.6 12.9 0.00 0.00 0.00 23 1017.2
20260906053503 28 41 1.6 4.8 0.00 0.00 0.00 25 1017.2
20260906053004 28 0 0.0 3.2 0.00 0.00 0.00 27 1017.2
20260906052504 27 0 0.0 3.2 0.00 0.00 0.00 28 1017.2
20260906052003 27 0 0.0 3.2 0.00 0.00 0.00 28 1017.2
20260906051503 26 0 0.0 3.2 0.00 0.00 0.00 30 1017.2
20260906051003 26 0 0.0 3.2 0.00 0.00 0.00 31 1017.3
20260906050503 26 0 0.0 3.2 0.00 0.00 0.00 32 1017.2
20260906050004 26 0 0.0 3.2 0.00 0.00 0.00 33 1017.2
20260906045503 25 237 3.2 3.2 0.00 0.00 0.00 32 1017.1
20260906045003 25 0 0.0 4.8 0.00 0.00 0.00 32 1017.1
20260906044504 25 0 0.0 4.8 0.00 0.00 0.00 31 1017.0
20260906044004 25 0 0.0 3.2 0.00 0.00 0.00 31 1016.9
20260906043503 25 0 0.0 3.2 0.00 0.00 0.00 31 1016.8
20260906043003 25 0 0.0 4.8 0.00 0.00 0.00 31 1016.7
20260906042503 25 0 0.0 6.4 0.00 0.00 0.00 31 1016.7
20260906042003 24 10 1.6 6.4 0.00 0.00 0.00 31 1016.6
20260906041504 24 19 1.6 6.4 0.00 0.00 0.00 31 1016.4
20260906041004 24 30 1.6 6.4 0.00 0.00 0.00 32 1016.4
20260906040503 24 22 1.6 6.4 0.00 0.00 0.00 32 1016.4
20260906040003 24 0 0.0 6.4 0.00 0.00 0.00 32 1016.3
20260906035503 24 41 1.6 6.4 0.00 0.00 0.00 33 1016.3
20260906035004 24 39 1.6 6.4 0.00 0.00 0.00 33 1016.2
20260906034503 24 0 0.0 6.4 0.00 0.00 0.00 33 1016.2
20260906034003 24 41 3.2 9.7 0.00 0.00 0.00 34 1016.2
20260906033503 24 0 0.0 9.7 0.00 0.00 0.00 34 1016.2
20260906033004 24 34 3.2 9.7 0.00 0.00 0.00 34 1016.2
20260906032503 24 45 3.2 6.4 0.00 0.00 0.00 34 1016.1
20260906032003 24 0 0.0 4.8 0.00 0.00 0.00 34 1016.1
20260906031503 24 84 1.6 4.8 0.00 0.00 0.00 34 1016.1
20260906031004 24 0 0.0 4.8 0.00 0.00 0.00 34 1016.1
20260906030503 24 0 0.0 4.8 0.00 0.00 0.00 34 1015.9
20260906030003 24 0 0.0 4.8 0.00 0.00 0.00 34 1015.9
20260906025503 24 35 1.6 6.4 0.00 0.00 0.00 33 1015.8
20260906025003 24 0 0.0 6.4 0.00 0.00 0.00 33 1015.9
20260906024503 24 84 1.6 6.4 0.00 0.00 0.00 33 1015.9
20260906024003 24 157 1.6 6.4 0.00 0.00 0.00 33 1015.8
20260906023504 24 0 0.0 6.4 0.00 0.00 0.00 33 1015.7
20260906023004 24 209 1.6 6.4 0.00 0.00 0.00 33 1015.7
20260906022503 24 164 1.6 6.4 0.00 0.00 0.00 33 1015.8
20260906022004 24 123 1.6 6.4 0.00 0.00 0.00 33 1015.8
20260906021503 24 0 0.0 8.0 0.00 0.00 0.00 34 1015.9
20260906021004 24 0 0.0 8.0 0.00 0.00 0.00 34 1015.9
20260906020503 24 0 0.0 6.4 0.00 0.00 0.00 34 1015.9
20260906020004 24 0 0.0 4.8 0.00 0.00 0.00 34 1015.9
20260906015504 24 0 0.0 4.8 0.00 0.00 0.00 34 1015.8
20260906015004 24 208 1.6 3.2 0.00 0.00 0.00 34 1015.9
20260906014504 24 0 0.0 3.2 0.00 0.00 0.00 33 1015.9
20260906014003 25 221 1.6 3.2 0.00 0.00 0.00 33 1015.9
20260906013503 25 0 0.0 3.2 0.00 0.00 0.00 33 1016.0
20260906013003 25 0 0.0 4.8 0.00 0.00 0.00 33 1016.0
20260906012503 25 248 1.6 4.8 0.00 0.00 0.00 32 1015.9
20260906012004 25 318 1.6 4.8 0.00 0.00 0.00 32 1016.0
20260906011503 25 0 0.0 6.4 0.00 0.00 0.00 31 1016.0
20260906011003 25 0 0.0 6.4 0.00 0.00 0.00 31 1015.9
20260906010503 25 0 0.0 4.8 0.00 0.00 0.00 30 1015.9
20260906010004 25 30 1.6 6.4 0.00 0.00 0.00 30 1015.9
20260906005503 25 43 1.6 6.4 0.00 0.00 0.00 30 1015.8
20260906005004 25 35 1.6 6.4 0.00 0.00 0.00 30 1015.8
20260906004503 25 0 0.0 6.4 0.00 0.00 0.00 30 1015.8
20260906004003 25 0 0.0 4.8 0.00 0.00 0.00 29 1015.8
20260906003503 25 0 0.0 6.4 0.00 0.00 0.00 29 1015.8
20260906003003 25 205 1.6 6.4 0.00 0.00 0.00 29 1015.9
20260906002504 25 208 1.6 6.4 0.00 0.00 0.00 30 1015.7
20260906002003 25 286 3.2 9.7 0.00 0.00 0.00 30 1015.8
20260906001503 25 0 0.0 9.7 0.00 0.00 0.00 31 1015.8
20260906001003 25 0 0.0 6.4 0.00 0.00 0.00 30 1015.8
20260906000504 25 0 0.0 6.4 0.00 0.00 0.00 30 1015.8
20260906000003 25 153 1.6 8.0 0.00 0.00 0.00 29 1015.9
20260905235503 25 204 1.6 8.0 0.00 0.00 0.00 29 1016.0
20260905235003 25 229 1.6 4.8 0.00 0.00 0.00 29 1015.9
20260905234504 25 204 3.2 4.8 0.00 0.00 0.00 28 1015.7
20260905234004 25 140 1.6 4.8 0.00 0.00 0.00 28 1015.8
20260905233503 25 352 1.6 6.4 0.00 0.00 0.00 28 1015.8
20260905233003 25 0 0.0 6.4 0.00 0.00 0.00 29 1015.8
20260905232504 25 51 3.2 6.4 0.00 0.00 0.00 29 1015.8
20260905232003 25 165 1.6 6.4 0.00 0.00 0.00 28 1016.0
20260905231503 25 187 1.6 4.8 0.00 0.00 0.00 28 1016.1
20260905231004 25 0 0.0 6.4 0.00 0.00 0.00 28 1016.1
20260905230504 25 0 0.0 6.4 0.00 0.00 0.00 28 1016.1
20260905230003 25 0 0.0 4.8 0.00 0.00 0.00 28 1016.0
20260905225504 25 0 0.0 4.8 0.00 0.00 0.00 28 1016.1
20260905225003 26 0 0.0 6.4 0.00 0.00 0.00 28 1016.2
20260905224503 26 0 0.0 6.4 0.00 0.00 0.00 28 1016.1
20260905224003 26 32 1.6 6.4 0.00 0.00 0.00 28 1016.1
20260905223504 26 25 1.6 6.4 0.00 0.00 0.00 28 1016.2
20260905223004 26 34 1.6 6.4 0.00 0.00 0.00 28 1016.1
20260905222503 26 198 1.6 4.8 0.00 0.00 0.00 28 1016.1
20260905222003 26 0 0.0 3.2 0.00 0.00 0.00 28 1016.2
20260905221503 26 0 0.0 3.2 0.00 0.00 0.00 28 1016.0
20260905221004 26 0 0.0 8.0 0.00 0.00 0.00 28 1016.1
20260905220503 26 0 0.0 8.0 0.00 0.00 0.00 28 1016.1
20260905220003 26 220 1.6 4.8 0.00 0.00 0.00 28 1016.0
20260905215503 26 231 3.2 4.8 0.00 0.00 0.00 28 1016.0
20260905215004 26 353 1.6 4.8 0.00 0.00 0.00 29 1016.1
20260905214503 26 2 1.6 6.4 0.00 0.00 0.00 29 1016.0
20260905214004 26 7 1.6 6.4 0.00 0.00 0.00 29 1016.2
20260905213504 26 0 0.0 4.8 0.00 0.00 0.00 29 1016.2
20260905213003 26 157 1.6 4.8 0.00 0.00 0.00 29 1016.3
20260905212503 26 181 1.6 4.8 0.00 0.00 0.00 29 1016.3
20260905212004 26 240 1.6 4.8 0.00 0.00 0.00 29 1016.4
20260905211503 26 0 0.0 3.2 0.00 0.00 0.00 30 1016.3
20260905211003 26 186 1.6 4.8 0.00 0.00 0.00 30 1016.3
20260905210503 27 322 1.6 4.8 0.00 0.00 0.00 31 1016.3
20260905210004 27 0 0.0 4.8 0.00 0.00 0.00 32 1016.3
20260905205503 27 0 0.0 4.8 0.00 0.00 0.00 32 1016.4
20260905205004 27 0 0.0 3.2 0.00 0.00 0.00 32 1016.3
20260905204503 27 0 0.0 3.2 0.00 0.00 0.00 33 1016.4
20260905204003 27 0 0.0 3.2 0.00 0.00 0.00 33 1016.4
20260905203503 27 0 0.0 3.2 0.00 0.00 0.00 32 1016.4
20260905203004 27 0 0.0 3.2 0.00 0.00 0.00 32 1016.5
20260905202503 27 0 0.0 3.2 0.00 0.00 0.00 32 1016.5
20260905202003 27 0 0.0 3.2 0.00 0.00 0.00 31 1016.4
20260905201503 27 0 0.0 3.2 0.00 0.00 0.00 31 1016.4
20260905201003 27 0 0.0 4.8 0.00 0.00 0.00 31 1016.4
20260905200504 27 0 0.0 4.8 0.00 0.00 0.00 30 1016.3
20260905200004 27 49 1.6 3.2 0.00 0.00 0.00 29 1016.3
20260905195503 27 0 0.0 3.2 0.00 0.00 0.00 29 1016.4
20260905195003 27 0 0.0 3.2 0.00 0.00 0.00 28 1016.4
20260905194503 27 0 0.0 3.2 0.00 0.00 0.00 29 1016.3
20260905194003 27 0 0.0 3.2 0.00 0.00 0.00 28 1016.2
20260905193504 28 34 1.6 3.2 0.00 0.00 0.00 28 1016.3
20260905193003 28 0 0.0 3.2 0.00 0.00 0.00 28 1016.2
20260905192503 28 0 0.0 3.2 0.00 0.00 0.00 27 1016.4
20260905192004 28 0 0.0 3.2 0.00 0.00 0.00 26 1016.4
20260905191503 28 0 0.0 3.2 0.00 0.00 0.00 25 1016.4
20260905191003 29 1 1.6 3.2 0.00 0.00 0.00 24 1016.4
20260905190503 29 0 0.0 3.2 0.00 0.00 0.00 22 1016.3
20260905190004 29 0 0.0 4.8 0.00 0.00 0.00 22 1016.3
20260905185503 30 1 1.6 6.4 0.00 0.00 0.00 21 1016.3
20260905185003 30 181 3.2 6.4 0.00 0.00 0.00 21 1016.3
20260905184504 30 167 1.6 8.0 0.00 0.00 0.00 21 1016.3
20260905184003 30 145 3.2 8.0 0.00 0.00 0.00 20 1016.3
20260905183503 30 126 1.6 6.4 0.00 0.00 0.00 20 1016.3
20260905183003 30 140 1.6 8.0 0.00 0.00 0.00 19 1016.3
20260905182504 30 154 3.2 8.0 0.00 0.00 0.00 20 1016.2
20260905182004 30 144 4.8 6.4 0.00 0.00 0.00 20 1016.1
20260905181504 30 132 3.2 6.4 0.00 0.00 0.00 22 1016.1
20260905181004 30 0 0.0 11.3 0.00 0.00 0.00 23 1016.0
20260905180503 30 135 4.8 11.3 0.00 0.00 0.00 23 1015.9
20260905180003 30 129 1.6 6.4 0.00 0.00 0.00 25 1016.0
20260905175503 30 130 1.6 4.8 0.00 0.00 0.00 24 1016.0
20260905175004 30 0 0.0 8.0 0.00 0.00 0.00 24 1015.8
20260905174504 30 126 3.2 8.0 0.00 0.00 0.00 23 1015.9
20260905174003 30 148 1.6 9.7 0.00 0.00 0.00 23 1015.8
20260905173504 30 144 3.2 9.7 0.00 0.00 0.00 24 1015.8
20260905173004 30 158 3.2 9.7 0.00 0.00 0.00 25 1015.8
20260905172503 30 159 3.2 9.7 0.00 0.00 0.00 27 1015.7
20260905172004 30 135 3.2 6.4 0.00 0.00 0.00 30 1015.6
20260905171503 30 145 3.2 6.4 0.00 0.00 0.00 30 1015.7
20260905171004 30 140 3.2 6.4 0.00 0.00 0.00 30 1015.8
20260905170504 30 0 0.0 6.4 0.00 0.00 0.00 29 1015.7
20260905170003 30 0 0.0 6.4 0.00 0.00 0.00 30 1015.7
20260905165503 30 300 1.6 6.4 0.00 0.00 0.00 31 1015.7
20260905165004 30 12 3.2 6.4 0.00 0.00 0.00 32 1015.7
20260905164503 31 42 3.2 6.4 0.00 0.00 0.00 31 1015.6
20260905164003 31 144 1.6 8.0 0.00 0.00 0.00 29 1015.4
20260905163503 31 316 1.6 8.0 0.00 0.00 0.00 27 1015.4
20260905163004 31 308 1.6 8.0 0.00 0.00 0.00 27 1015.5
20260905162503 31 345 1.6 11.3 0.00 0.00 0.00 24 1015.4
20260905162003 31 91 1.6 11.3 0.00 0.00 0.00 22 1015.5
20260905161503 31 136 1.6 11.3 0.00 0.00 0.00 22 1015.5
20260905161004 31 148 3.2 14.5 0.00 0.00 0.00 23 1015.4
20260905160503 31 153 1.6 14.5 0.00 0.00 0.00 24 1015.6
20260905160003 32 85 3.2 8.0 0.00 0.00 0.00 27 1015.5
20260905155504 32 282 3.2 12.9 0.00 0.00 0.00 24 1015.6
20260905155004 32 278 3.2 12.9 0.00 0.00 0.00 22 1015.6
20260905154503 33 59 4.8 8.0 0.00 0.00 0.00 18 1015.5
20260905154004 33 107 1.6 12.9 0.00 0.00 0.00 17 1015.5
20260905153503 33 308 3.2 12.9 0.00 0.00 0.00 19 1015.5
20260905153003 34 296 4.8 12.9 0.00 0.00 0.00 18 1015.6
20260905152504 35 162 6.4 12.9 0.00 0.00 0.00 15 1015.6
20260905152003 35 99 3.2 6.4 0.00 0.00 0.00 14 1015.4
20260905151504 35 165 3.2 8.0 0.00 0.00 0.00 12 1015.5
20260905151003 35 253 1.6 9.7 0.00 0.00 0.00 15 1015.4
20260905150503 36 277 4.8 9.7 0.00 0.00 0.00 16 1015.3
20260905150003 36 70 3.2 8.0 0.00 0.00 0.00 15 1015.3
20260905145504 37 137 1.6 8.0 0.00 0.00 0.00 13 1015.3
20260905145003 37 0 0.0 8.0 0.00 0.00 0.00 12 1015.3
20260905144503 37 131 3.2 6.4 0.00 0.00 0.00 11 1015.4
20260905144004 37 175 3.2 8.0 0.00 0.00 0.00 12 1015.4
20260905143504 37 160 1.6 9.7 0.00 0.00 0.00 13 1015.5
20260905143003 37 92 6.4 9.7 0.00 0.00 0.00 11 1015.5
20260905142503 37 132 1.6 11.3 0.00 0.00 0.00 10 1015.6
20260905142003 37 132 3.2 11.3 0.00 0.00 0.00 10 1015.6
20260905141504 37 119 3.2 11.3 0.00 0.00 0.00 10 1015.7
20260905141003 38 195 4.8 9.7 0.00 0.00 0.00 10 1015.6
20260905140503 38 231 4.8 9.7 0.00 0.00 0.00 10 1015.7
20260905140003 38 263 3.2 11.3 0.00 0.00 0.00 10 1015.7
20260905135504 38 304 1.6 11.3 0.00 0.00 0.00 10 1015.7
20260905135003 38 256 3.2 12.9 0.00 0.00 0.00 10 1015.7
20260905134503 37 252 3.2 12.9 0.00 0.00 0.00 10 1015.8
20260905134004 38 263 3.2 9.7 0.00 0.00 0.00 10 1016.0
20260905133503 38 260 3.2 11.3 0.00 0.00 0.00 10 1015.9
20260905133004 38 266 4.8 11.3 0.00 0.00 0.00 10 1016.1
20260905132504 37 277 3.2 11.3 0.00 0.00 0.00 10 1016.2
20260905132003 37 285 4.8 11.3 0.00 0.00 0.00 10 1016.1
20260905131503 37 301 3.2 16.1 0.00 0.00 0.00 10 1016.2
20260905131004 37 307 3.2 16.1 0.00 0.00 0.00 10 1016.2
20260905130503 37 304 6.4 14.5 0.00 0.00 0.00 10 1016.4
20260905130004 38 310 6.4 14.5 0.00 0.00 0.00 10 1016.4
20260905125504 38 130 1.6 8.0 0.00 0.00 0.00 10 1016.2
20260905125003 38 135 1.6 8.0 0.00 0.00 0.00 10 1016.4
20260905124503 38 141 1.6 11.3 0.00 0.00 0.00 10 1016.4
20260905124003 37 226 1.6 11.3 0.00 0.00 0.00 10 1016.5
20260905123503 37 283 4.8 11.3 0.00 0.00 0.00 10 1016.6
20260905123003 37 243 4.8 11.3 0.00 0.00 0.00 10 1016.7
20260905122504 37 165 3.2 11.3 0.00 0.00 0.00 10 1016.7
20260905122003 37 127 3.2 12.9 0.00 0.00 0.00 10 1016.7
20260905121503 37 122 3.2 12.9 0.00 0.00 0.00 10 1016.8
20260905121003 37 125 3.2 11.3 0.00 0.00 0.00 10 1016.8
20260905120504 37 269 1.6 12.9 0.00 0.00 0.00 10 1016.8
20260905120004 37 281 3.2 12.9 0.00 0.00 0.00 10 1017.0
20260905115503 38 241 6.4 12.9 0.00 0.00 0.00 10 1017.0
20260905115003 38 231 3.2 9.7 0.00 0.00 0.00 10 1017.0
20260905114504 37 0 0.0 9.7 0.00 0.00 0.00 10 1017.0
20260905114004 37 306 4.8 8.0 0.00 0.00 0.00 10 1017.1
20260905113503 37 81 1.6 9.7 0.00 0.00 0.00 10 1017.2
20260905113004 37 103 1.6 9.7 0.00 0.00 0.00 10 1017.2
20260905112503 37 108 1.6 12.9 0.00 0.00 0.00 11 1017.2
20260905112003 36 153 3.2 12.9 0.00 0.00 0.00 11 1017.3
20260905111504 36 218 3.2 11.3 0.00 0.00 0.00 11 1017.3
20260905111004 37 147 3.2 11.3 0.00 0.00 0.00 10 1017.4
20260905110504 36 143 3.2 9.7 0.00 0.00 0.00 10 1017.4
20260905110003 36 141 4.8 9.7 0.00 0.00 0.00 10 1017.4
20260905105503 36 0 0.0 9.7 0.00 0.00 0.00 11 1017.4
20260905105004 36 106 3.2 11.3 0.00 0.00 0.00 12 1017.5
20260905104504 36 124 3.2 11.3 0.00 0.00 0.00 12 1017.5
20260905104003 36 147 6.4 11.3 0.00 0.00 0.00 12 1017.5
20260905103503 36 131 3.2 6.4 0.00 0.00 0.00 12 1017.6
20260905103003 36 151 1.6 11.3 0.00 0.00 0.00 14 1017.5
20260905102504 35 191 1.6 11.3 0.00 0.00 0.00 15 1017.6
20260905102003 35 137 3.2 9.7 0.00 0.00 0.00 15 1017.7
20260905101503 35 132 1.6 11.3 0.00 0.00 0.00 16 1017.7
20260905101004 35 132 3.2 11.3 0.00 0.00 0.00 16 1017.8
20260905100503 35 148 3.2 11.3 0.00 0.00 0.00 17 1017.9
20260905100003 35 267 3.2 11.3 0.00 0.00 0.00 17 1018.1
20260905095503 35 270 1.6 9.7 0.00 0.00 0.00 18 1018.1
20260905095004 35 223 3.2 11.3 0.00 0.00 0.00 17 1018.1
20260905094504 35 198 4.8 11.3 0.00 0.00 0.00 17 1018.2
20260905094003 35 0 0.0 12.9 0.00 0.00 0.00 19 1018.1
20260905093503 35 292 1.6 12.9 0.00 0.00 0.00 18 1018.1
20260905093003 35 53 6.4 12.9 0.00 0.00 0.00 18 1018.2
20260905092504 35 110 3.2 9.7 0.00 0.00 0.00 19 1018.2
20260905092003 35 275 3.2 9.7 0.00 0.00 0.00 19 1018.2
20260905091503 34 264 3.2 9.7 0.00 0.00 0.00 18 1018.3
20260905091003 35 262 1.6 9.7 0.00 0.00 0.00 19 1018.4
20260905090504 35 270 3.2 9.7 0.00 0.00 0.00 19 1018.4
20260905090003 34 296 3.2 6.4 0.00 0.00 0.00 21 1018.5
20260905085503 35 333 3.2 6.4 0.00 0.00 0.00 20 1018.5
20260905085004 34 0 0.0 6.4 0.00 0.00 0.00 21 1018.4
20260905084503 33 0 0.0 6.4 0.00 0.00 0.00 22 1018.5
20260905084003 33 241 1.6 8.0 0.00 0.00 0.00 23 1018.5
20260905083503 33 229 3.2 8.0 0.00 0.00 0.00 22 1018.5
20260905083004 34 113 3.2 4.8 0.00 0.00 0.00 22 1018.6
20260905082503 33 0 0.0 6.4 0.00 0.00 0.00 24 1018.5
20260905082003 32 294 1.6 6.4 0.00 0.00 0.00 26 1018.6
20260905081503 32 0 0.0 6.4 0.00 0.00 0.00 28 1018.6
20260905081004 31 0 0.0 6.4 0.00 0.00 0.00 29 1018.7
20260905080504 31 251 1.6 9.7 0.00 0.00 0.00 30 1018.7
20260905080003 31 238 1.6 11.3 0.00 0.00 0.00 31 1018.7
20260905075504 31 239 3.2 11.3 0.00 0.00 0.00 32 1018.7
20260905075003 31 233 4.8 9.7 0.00 0.00 0.00 32 1018.7
20260905074505 31 228 1.6 9.7 0.00 0.00 0.00 34 1018.6
20260905074004 30 238 4.8 9.7 0.00 0.00 0.00 35 1018.6
20260905073503 30 234 3.2 8.0 0.00 0.00 0.00 37 1018.6